Home > Time Zones > World Clock > Weather > China > Hefei > Past weeks

Flag for China Weather past 2 weeks in Hefei, Anhui, China

Now
70 °F

Clear.


Feels Like: 70 °F
Forecast: 57 / 83 °F
Wind: 3 mph from South

Location: Hefei Airport

Current Time: Oct 25, 2014 at 9:35:08 AM

Latest Report: Oct 25, 2014 at 9:00 AM


Visibility: 4 mi

Pressure: 30.07 "Hg

Humidity: 60%

Dew point: 55 °F

Location of HefeiLocation

Historic Weather in Hefei — Graph

°F

Hefei temperature yesterday

Maximum temperature yesterday: 79 °F (at 2:00 PM)
Minimum temperature yesterday: 54 °F (at 6:00 AM)
Average temperature yesterday: 66 °F

Past Weeks' High & Low Weather Summary

 TemperatureHumidityPressure
High82 °F (Oct 19, 3:00 PM)100% (Oct 21, 3:00 AM)30.33 "Hg (Oct 21, 3:00 AM)
Low50 °F (Oct 14, 5:00 AM)30% (Oct 18, 3:00 PM)29.86 "Hg (Oct 20, 2:00 PM)
Average65 °F73%30.11 "Hg
* Reported Oct 10 8:00 AM — Oct 25 8:00 AM, Hefei, Weather by CustomWeather, © 2014

Note: Actual official high and low records may vary slightly from our data, if they occured in-between our weather recording intervals... More about our weather records

Advertising

Hefei weather history for previous 24 hours

 ConditionsComfort  
Time TempWeatherWind HumidityBarometerVisibility
8:00 AM
Oct 25
63 °FFog.3 mph83%30.04 "Hg2 mi
7:00 AM57 °FFog.8 mph88%30.04 "Hg2 mi
6:00 AM55 °FFog.6 mph88%30.01 "Hg2 mi
5:00 AM55 °FFog.3 mph88%30.01 "Hg2 mi
4:00 AM57 °FFog.6 mph88%30.01 "Hg2 mi
3:00 AM57 °FFog.6 mph88%30.01 "Hg2 mi
2:00 AM59 °FFog.3 mph88%30.01 "Hg2 mi
1:00 AM59 °FFog.6 mph88%30.04 "Hg3 mi
12:00 AM61 °FFog.6 mph77%30.04 "Hg3 mi
11:00 PM
Oct 24
63 °FClear.3 mph77%30.04 "Hg4 mi
10:00 PM63 °FClear.8 mph77%30.04 "Hg5 mi
9:00 PM63 °FClear.8 mph73%30.04 "Hg10 mi
8:00 PM66 °FClear.6 mph64%30.01 "Hg10 mi
7:00 PM64 °FClear.6 mph68%30.01 "Hg10 mi
6:00 PM68 °FClear.6 mph64%29.98 "Hg10 mi
5:00 PM75 °FSunny.6 mph44%29.98 "Hg10 mi
4:00 PM79 °FSunny.6 mph39%29.98 "Hg10 mi
3:00 PM79 °FPassing clouds.8 mph34%29.98 "HgN/A
2:00 PM79 °FPassing clouds.6 mph39%29.98 "HgN/A
1:00 PM77 °FSunny.3 mph44%30.01 "Hg10 mi
12:00 PM77 °FPassing clouds.3 mph47%30.07 "HgN/A
11:00 AM73 °FPassing clouds.3 mph57%30.07 "HgN/A
10:00 AM72 °FPassing clouds.6 mph61%30.07 "HgN/A
9:00 AM66 °FSunny.6 mph68%30.09 "Hg10 mi
Weather by CustomWeather, © 2014

See weather overviewHow to use our weather pages